Regional Weather Roundup
Issued by NWS

Home | Current Version | Previous Version | Graphics & Text | Print | Product List | Glossary On
Versions: 1 2 3 4 5 6 7 8 9 10 11 12 13 14 15 16 17 18 19 20 21 22 23 24 25 26 27 28 29 30 31 32 33 34 35 36 37 38 39 40 41 42 43 44 45 46 47 48 49 50
000
ASUS43 KIND 100509
RWRIN

WEATHER ROUNDUP FOR INDIANA
NATIONAL WEATHER SERVICE INDIANAPOLIS IN
1200 AM EST SAT DEC 10 2016

NOTE: "FAIR" INDICATES FEW OR NO CLOUDS BELOW 12,000 FEET WITH NO
SIGNIFICANT WEATHER AND/OR OBSTRUCTIONS TO VISIBILITY.

* - STATION DOES NOT REPORT WEATHER SUCH AS PRECIPITATION OR FOG.

+ - STATION NOT QUALITY CONTROLLED BY THE NATIONAL WEATHER SERVICE.
    USE DATA WITH CAUTION...ESPECIALLY DEWPOINT AND RELATIVE
    HUMIDITY OBSERVATIONS.

INZ001>003-010>013-019-020-100600-
NORTHWEST INDIANA

CITY           SKY/WX    TMP DP  RH WIND       PRES   REMARKS
GARY /AIRPORT/ CLEAR     21  15  76 SW3       30.52F
KNOX *+        CLOUDY    19   0  42 W7        30.52R WCI  10
LA PORTE +     MOCLDY    19  12  73 W9        30.50S WCI   9
MICHIGAN CITY+ CLOUDY    21  16  79 SW8       30.50S WCI  12
MONTICELLO +   CLOUDY    23   8  54 W6        30.52S WCI  15
RENSSELAER +     N/A     25  18  74 W6        30.53S WCI  18
VALPARAISO     PTCLDY    18  11  74 SW5       30.51S WCI  11

$$

LMZ046-743>745-100600-
SOUTHERN LAKE MICHIGAN

STATION/POSITION TIME  TEMP    WIND        PRES    WAVE
                       AIR SEA DIR/SP/G            HT
                 (UTC) (F)     (DEG/KT/KT) (MB)    (FT)

$$

INZ004-005-014>016-021>024-100600-
NORTH CENTRAL INDIANA

CITY           SKY/WX    TMP DP  RH WIND       PRES   REMARKS
GOSHEN         MOCLDY    21  12  68 W10       30.47S WCI  10
LOGANSPORT +   CLOUDY    23  14  68 W10       30.53S WCI  12
PERU/GRISSOM   CLOUDY    23  14  68 W9        30.49S WCI  13
ROCHESTER +    PTCLDY    23  16  74 W8        30.51R WCI  14
SOUTH BEND     CLOUDY    20  14  77 W10       30.48R HAZE    WCI   9
WARSAW +       CLEAR     19  12  73 W7        30.48S WCI  10

$$

INZ006>009-017-018-025>027-100600-
NORTHEAST INDIANA

CITY           SKY/WX    TMP DP  RH WIND       PRES   REMARKS
ANGOLA *+      CLOUDY    21  18  86 W7        30.43F WCI  13
AUBURN +       MOCLDY    23  14  68 W7        30.47S WCI  15
FORT WAYNE     PTCLDY    21  13  71 W10       30.48F WCI  10
HUNTINGTON +   CLEAR     19  13  76 W8        30.49S WCI   9
KENDALLVILLE + MOCLDY    21  15  76 W8        30.45F WCI  12

$$

INZ028-029-035-036-043>045-051>053-100600-
WEST CENTRAL INDIANA

CITY           SKY/WX    TMP DP  RH WIND       PRES   REMARKS
CRAWFORDSVL +  CLOUDY    21  18  88 W5        30.53S WCI  14
GREENCASTLE +  PTCLDY    23  19  86 W3        30.54R
LAFAYETTE      CLOUDY    23  16  74 NW7       30.54R WCI  15
TERRE HAUTE    CLOUDY    24  14  65 NW5       30.56S WCI  18

$$

INZ030>032-037>040-046>048-054>057-064-065-100600-
CENTRAL INDIANA

CITY           SKY/WX    TMP DP  RH WIND       PRES   REMARKS
CP ATTERBURY + CLOUDY    23  19  86 SW6       30.55R WCI  16
FISHERS *+     CLOUDY    21  21 100 CALM      30.52S
FRANKFORT +    CLOUDY    26  19  76 W8        30.53S WCI  17
GREENWOOD *+   CLEAR     22  17  83 CALM      30.53R
INDIANAPOLIS   PTCLDY    20  15  81 W6        30.52R WCI  12
-EAGLE CREEK   PTCLDY    22  15  75 VRB5      30.52R WCI  16
KOKOMO +       CLOUDY    22  14  71 W10       30.52R WCI  11
MARION +       CLOUDY    22  17  79 NW6       30.51S WCI  15
MT COMFORT *+  CLEAR     16  12  86 W7        30.52R WCI   6
SHELBYVILLE    PTCLDY    21  15  78 W6        30.52R WCI  13
ZIONSVILLE +   CLOUDY    23  15  73 W7        30.51S WCI  14

$$

INZ033-034-041-042-049-050-058-059-100600-
EAST CENTRAL INDIANA

CITY           SKY/WX    TMP DP  RH WIND       PRES   REMARKS
MUNCIE         CLOUDY    24  19  81 W5        30.50S WCI  18

$$

INZ060-061-067>069-081>083-085>088-100600-
SOUTHWEST INDIANA

CITY           SKY/WX    TMP DP  RH WIND       PRES   REMARKS
EVANSVILLE     CLEAR     19  15  84 CALM      30.61R
HUNTINGBURG *+ MOCLDY    20  16  84 CALM      30.59R
WASHINGTON +   CLOUDY    23  20  91 CALM      30.58S

$$

INZ062-063-066-070>080-084-089>092-100600-
SOUTH CENTRAL AND SOUTHEAST INDIANA

CITY           SKY/WX    TMP DP  RH WIND       PRES   REMARKS
BLOOMINGTON    CLOUDY    20  15  81 W3        30.55R
MADISON *+     CLEAR     19  18  93 CALM      30.57R
NORTH VERNON + PTCLDY    19  19 100 CALM      30.55R
SEYMOUR +      PTCLDY    19  16  86 SW3       30.57R

$$





USA.gov is the U.S. government's official web portal to all federal, state and local government web resources and services.